Messwerte Lakehurst

Temperatur

Temperatur
°C
1614344400 8.00 8.00 1
1614348000 9.00 9.00 4
1614351600 10.00 10.00 6
1614355200 11.00 11.00 7
1614358800 12.00 12.00 7
1614362400 13.00 13.00 8
1614366000 14.00 14.00 7
1614369600 15.00 15.00 7
1614373200 16.00 16.00 6
1614376800 17.00 17.00 5
1614380400 18.00 18.00 4
1614384000 19.00 19.00 3
1614387600 20.00 20.00 3
1614391200 21.00 21.00 3
1614394800 22.00 22.00 4
1614398400 23.00 23.00 4
1614402000 0.00 0.00 4
1614405600 1.00 1.00 4
1614409200 2.00 2.00 3
1614412800 3.00 3.00 4
1614416400 4.00 4.00 4
1614420000 5.00 5.00 4
1614423600 6.00 6.00
1614427200 7.00 7.00 5

Aktuellste Messwerte

Wettercharakter
Wetter: bedeckt, wenig Regen
Temperatur
6 °C
Feuchtigkeit
100 %
Wind
15 km/hWindrichtung: Ost
Luftdruck
1023 hPa
Messzeit: 27. Februar 2021, 7.00Datenquelle: METAR

Weitere Messstationen in der Nähe

Messstation Temperatur Entfernung
Belmar-Farmingdale 5 °C 23 km
Wrightstown NJ 5 °C 24 km
Mount Holly 5 °C 46 km
Trenton 3 °C 50 km
Philadelphia 4 °C 59 km
Atlantic City 7 °C 68 km
Somerville 3 °C 72 km

Wind

Windrichtung Böen Mittelwind
° km/h km/h
1614344400 8.00 7.00 - 8.00 0
1614348000 9.00 8.00 - 9.00 10
1614351600 10.00 9.00 - 10.00
1614355200 11.00 10.00 - 11.00 70° 10
1614358800 12.00 11.00 - 12.00
1614362400 13.00 12.00 - 13.00 10
1614366000 14.00 13.00 - 14.00 140° 20
1614369600 15.00 14.00 - 15.00 130° 15
1614373200 16.00 15.00 - 16.00 130° 15
1614376800 17.00 16.00 - 17.00 130° 15
1614380400 18.00 17.00 - 18.00 140° 10
1614384000 19.00 18.00 - 19.00 130° 5
1614387600 20.00 19.00 - 20.00 110° 5
1614391200 21.00 20.00 - 21.00 130° 5
1614394800 22.00 21.00 - 22.00 140° 5
1614398400 23.00 22.00 - 23.00 120° 10
1614402000 0.00 23.00 - 0.00 110° 10
1614405600 1.00 0.00 - 1.00 160° 5
1614409200 2.00 1.00 - 2.00 170° 5
1614412800 3.00 2.00 - 3.00 80° 10
1614416400 4.00 3.00 - 4.00 70° 15
1614420000 5.00 4.00 - 5.00 90° 15
1614423600 6.00 5.00 - 6.00
1614427200 7.00 6.00 - 7.00 80° 15

Ihre Wetterstation

Fehlt Ihre Wetterstation auf unserem Portal?

Schreiben Sie an network@meteonews.ch

Klima

Wann ist es am wärmsten? Wann regnet es am wenigsten? Unsere Klimadaten geben Auskunft.